Location: Kimberly
(42.5380°N, 114.3640°W)
Time: 12:26:58
(UTC-06:00)

Tiangong 2 - Visible Passes

Search period start: 19 October 2017 00:00
Search period end: 29 October 2017 00:00
Orbit: 388 x 392 km, 42.8° (Epoch: 19 October)

Date Brightness Start Highest point End Pass type
(mag) Time Alt. Az. Time Alt. Az. Time Alt. Az.
19 Oct 2.3 06:05:12 35° SSE 06:05:12 35° SSE 06:07:25 10° SE visible
20 Oct 2.8 06:42:42 18° SW 06:43:04 19° SSW 06:45:23 10° SSE visible
21 Oct 4.0 05:47:55 12° SE 05:47:55 12° SE 05:48:10 10° SE visible
